Wind_Speed
35 35 34 33 33 33 34 35 37 39 42 45 49 52 56 60 64 66 67 67 68 69 69 66 63 61 61 61 60 60 60 60 61 62 63 64 64 65 66 67 63 54 42 32
34 35 34 34 34 35 35 37 38 40 43 46 49 53 57 61 64 65 66 66 67 68 68 65 61 60 60 59 59 59 60 60 61 62 63 65 65 66 68 67 62 50 39 29
36 37 37 38 39 38 37 38 40 42 44 46 49 53 57 61 63 64 65 65 66 67 66 63 60 59 58 58 58 58 59 60 61 63 64 65 66 67 68 66 61 50 39 27
38 41 41 42 42 42 41 40 42 43 45 47 50 54 57 61 63 63 64 64 65 66 65 62 59 58 58 58 57 57 58 59 60 62 64 65 66 67 68 67 62 53 41 30
40 43 44 46 47 47 46 43 44 44 46 48 51 54 57 60 62 63 63 63 64 64 63 60 58 56 56 57 56 56 56 58 59 61 63 64 66 67 68 67 64 58 47 36
39 43 46 49 49 50 49 46 47 46 47 49 50 53 56 60 61 62 62 63 63 63 62 59 57 55 55 55 55 55 55 57 59 60 62 64 65 67 68 68 65 61 53 42
40 43 46 50 52 52 49 49 48 47 48 48 50 52 56 59 61 61 62 62 62 62 61 58 55 54 53 54 54 54 55 56 57 59 60 62 64 66 67 68 66 62 57 49
41 45 48 50 52 52 51 50 48 47 47 48 50 52 56 59 60 61 61 61 62 61 60 57 55 53 52 52 53 53 54 55 56 57 58 60 62 63 65 65 65 63 59 53
38 42 46 49 52 53 53 51 49 48 48 48 49 52 55 58 60 61 61 61 61 60 59 57 54 52 51 51 52 52 53 53 54 55 56 58 59 61 62 62 63 63 61 57
37 41 46 49 52 54 54 52 50 49 48 48 50 52 55 58 60 60 60 60 60 59 58 56 53 51 49 49 50 51 51 52 53 54 55 56 57 58 59 60 60 61 61 59
37 41 45 49 52 55 55 53 51 50 49 49 50 52 55 57 59 60 60 59 59 58 57 55 53 50 48 48 48 49 50 50 51 53 54 55 56 57 58 59 59 60 60 59
38 42 45 49 52 55 56 54 52 51 49 49 50 52 55 57 59 59 59 59 58 57 56 55 52 50 48 46 46 47 48 49 50 51 52 53 55 56 57 57 58 58 59 58
38 42 45 49 52 55 57 55 53 51 50 49 50 52 54 56 58 59 59 58 57 57 56 54 52 49 47 45 45 46 46 47 49 50 51 52 53 54 54 55 56 56 56 56
39 42 45 48 51 54 56 56 54 52 50 49 50 52 53 56 58 58 58 58 57 56 55 53 51 49 47 45 44 44 45 46 47 48 50 51 52 52 53 53 53 54 54 54
40 43 45 48 51 54 56 57 54 52 51 49 50 51 53 55 57 58 58 57 56 55 54 53 51 49 47 45 43 43 43 44 45 47 48 50 51 51 52 52 52 52 52 52
41 43 45 48 50 53 56 57 55 53 51 50 50 51 53 55 56 57 57 57 56 54 53 52 50 48 47 45 43 42 42 42 43 45 46 48 49 50 50 51 51 50 50 50
42 43 45 47 50 52 55 56 55 53 52 50 50 51 52 54 56 57 57 56 55 54 52 51 49 48 46 45 43 42 41 41 42 43 44 46 47 48 49 49 49 49 49 49
43 44 45 47 49 52 54 56 56 54 52 51 50 50 52 53 55 56 56 56 54 53 51 50 49 47 46 44 43 42 41 41 41 42 43 44 45 47 48 48 48 48 48 48
43 44 45 47 49 51 53 55 56 54 52 51 50 50 51 53 54 55 56 55 54 52 51 49 48 47 46 44 43 42 42 41 41 41 41 42 44 45 45 46 46 46 46 46
44 44 45 47 48 50 53 55 56 54 53 51 50 50 50 52 54 55 55 54 53 52 50 49 48 46 45 44 43 42 42 42 41 41 41 41 42 43 43 44 44 44 44 45
45 45 46 47 48 50 52 54 55 54 53 51 49 49 50 51 53 54 54 53 53 51 50 48 47 46 45 43 43 42 41 41 42 42 41 41 41 41 42 42 42 42 42 43
46 46 46 47 48 50 51 54 55 54 53 51 49 48 49 50 52 53 54 53 52 51 49 47 46 46 44 43 42 41 41 41 42 42 42 41 41 40 40 40 40 40 40 41
47 47 47 47 48 49 51 53 55 54 52 51 49 48 48 49 51 52 52 52 51 50 48 47 46 45 44 43 42 41 40 41 41 42 42 42 41 40 39 39 39 38 38 39
48 47 47 47 48 49 50 52 54 54 52 50 48 47 47 49 50 51 52 52 51 50 47 46 45 44 44 43 42 41 40 40 41 42 42 42 41 40 39 38 37 36 36 37
49 48 48 48 48 49 50 52 53 53 51 49 47 46 47 48 49 50 51 51 50 49 47 45 44 44 44 43 42 41 40 39 40 40 42 42 41 40 38 37 35 34 34 34
50 49 49 48 48 49 50 51 53 53 51 48 46 46 46 47 48 49 50 50 50 49 47 45 43 43 43 43 42 40 39 38 38 39 40 41 41 40 38 36 34 33 32 33
51 50 49 49 49 49 50 51 53 53 50 47 46 45 45 47 48 48 49 50 49 48 46 44 43 42 42 42 42 40 39 38 37 38 39 40 40 39 38 35 33 31 31 31
Wind_Direction
10 6 3 360 354 349 344 341 340 340 340 341 343 343 345 345 346 346 345 345 344 343 344 344 344 345 346 347 348 350 352 352 352 352 352 353 352 352 351 350 349 349 350 353
11 8 5 1 357 353 348 344 344 343 343 343 344 345 346 347 347 347 346 345 345 345 345 345 346 346 347 349 351 353 354 354 355 356 356 356 357 357 357 357 357 358 359 4
12 10 6 4 360 356 352 348 347 345 345 345 346 346 347 348 347 347 346 346 346 346 347 347 347 348 349 351 353 355 356 356 357 358 359 360 1 2 2 3 4 5 6 12
10 9 8 3 0 357 355 350 348 347 346 346 347 347 348 348 348 348 347 347 347 347 348 348 349 350 351 353 355 357 357 358 359 1 2 3 4 6 7 9 10 11 11 15
6 7 5 3 1 357 354 352 350 348 348 348 348 348 348 348 349 348 348 348 348 349 349 350 350 351 353 355 357 358 359 360 2 3 4 5 7 10 11 13 14 15 16 18
3 4 2 1 0 357 354 353 351 349 348 348 348 348 348 349 349 349 349 349 350 350 351 351 352 352 354 356 358 359 0 2 4 5 6 8 10 12 14 16 17 19 21 22
0 1 1 360 359 355 353 351 350 349 348 347 348 348 349 350 350 350 350 350 351 351 352 352 352 353 355 358 359 1 2 4 6 7 8 10 12 14 16 18 20 21 23 25
357 358 358 357 356 355 352 351 349 348 347 347 347 348 349 350 351 351 351 351 352 353 353 354 353 354 356 358 0 2 4 6 7 9 10 12 14 16 18 20 21 23 24 26
353 353 353 354 354 353 352 350 349 348 348 347 347 348 349 351 351 352 352 352 353 354 354 355 355 355 357 359 2 4 6 8 9 10 11 13 15 17 19 21 22 24 26 27
348 349 351 351 352 352 351 350 349 348 348 347 347 348 350 351 352 353 353 353 353 354 355 355 356 356 357 359 2 5 8 9 10 11 12 14 15 17 19 21 23 25 26 28
343 345 348 349 350 351 351 350 349 348 347 347 348 349 350 351 353 353 353 353 354 355 355 356 356 356 357 359 2 5 8 10 11 12 13 14 15 17 19 21 23 25 26 28
339 341 344 346 348 349 350 350 349 348 347 347 348 349 350 351 353 353 354 354 354 355 356 356 357 357 357 358 1 5 8 10 12 13 14 15 15 16 18 20 22 23 25 26
333 337 340 342 345 347 348 349 348 348 347 347 348 348 350 351 353 354 354 354 354 355 356 356 357 357 357 357 360 3 7 10 12 13 14 15 16 17 18 19 21 22 24 25
329 333 336 339 342 345 346 348 347 347 346 346 347 348 349 351 353 354 354 354 354 355 356 356 357 357 356 357 359 1 5 9 11 12 14 15 16 17 18 19 20 21 22 24
324 328 332 335 338 342 344 346 346 346 345 345 346 347 348 350 352 353 354 354 354 354 355 356 356 357 357 357 358 360 3 6 9 11 12 14 15 16 16 17 19 20 21 22
318 323 327 331 334 338 342 344 345 345 344 344 345 346 347 349 351 353 354 354 354 354 354 355 356 356 356 356 356 358 360 3 6 8 10 12 13 14 14 15 17 18 19 20
313 318 322 327 331 335 338 341 343 343 343 343 343 345 346 348 350 352 353 354 354 354 354 354 355 355 356 356 355 356 357 360 1 4 6 9 10 11 12 13 14 15 16 17
308 313 318 323 327 331 335 338 341 341 341 341 342 343 345 347 349 351 352 353 353 353 353 353 354 354 355 355 355 355 355 357 358 360 2 4 6 8 9 10 11 13 14 15
303 309 314 319 323 327 332 336 339 340 340 340 340 341 343 345 348 350 351 352 352 352 352 352 353 353 354 354 354 354 354 354 355 356 357 360 2 4 5 7 9 10 11 12
299 305 310 315 320 324 329 333 336 338 338 338 338 339 341 344 346 348 350 351 351 351 351 351 352 352 352 353 353 353 353 353 353 353 354 355 357 359 1 3 6 7 8 10
296 302 307 312 316 321 326 330 334 335 336 336 336 337 339 342 344 346 348 349 350 350 350 350 351 351 351 351 352 353 353 352 352 352 352 352 353 355 357 359 2 4 5 7
293 299 303 308 313 317 322 327 331 333 334 334 334 335 337 340 342 344 346 348 349 349 349 349 349 350 350 350 350 351 352 352 352 352 352 351 351 352 354 356 358 0 2 4
290 295 299 304 309 314 319 324 328 330 331 332 332 333 335 337 340 342 344 347 348 348 348 348 348 348 349 349 349 349 350 351 351 351 351 351 351 351 352 353 355 358 360 2
286 291 295 300 306 311 315 320 325 327 329 329 330 331 333 335 338 340 342 345 347 347 347 347 347 347 348 348 348 348 349 349 350 351 351 351 350 350 351 352 353 355 357 359
282 287 292 297 302 307 312 317 322 324 326 326 327 329 331 333 335 338 340 343 345 345 346 346 346 346 346 347 346 347 347 348 349 350 351 351 351 350 350 351 352 354 356 357
278 283 288 293 299 304 308 313 318 322 323 324 325 326 328 331 333 336 338 341 344 344 344 344 344 345 345 345 345 345 346 347 348 349 350 351 351 351 351 351 352 354 355 357
275 280 285 290 295 300 305 310 315 319 320 321 322 324 326 329 331 334 337 339 342 343 343 343 343 343 343 344 344 344 345 345 347 348 349 350 351 352 352 351 352 354 356 357
Height
5856 5849 5842 5837 5831 5824 5816 5809 5801 5794 5785 5775 5763 5752 5740 5728 5714 5699 5685 5670 5655 5640 5624 5608 5593 5578 5564 5550 5535 5520 5506 5491 5477 5461 5445 5428 5411 5393 5374 5353 5331 5312 5297 5285
5856 5849 5841 5835 5828 5820 5812 5804 5797 5788 5779 5769 5758 5747 5735 5722 5708 5694 5680 5666 5651 5636 5620 5604 5590 5576 5561 5547 5532 5517 5503 5489 5474 5458 5442 5426 5408 5389 5369 5348 5327 5309 5294 5283
5854 5847 5840 5832 5825 5817 5809 5800 5792 5783 5775 5763 5753 5742 5730 5717 5704 5690 5676 5662 5647 5632 5616 5601 5587 5573 5559 5545 5530 5515 5501 5487 5472 5457 5441 5424 5406 5387 5368 5348 5328 5310 5296 5286
5851 5844 5835 5832 5821 5813 5805 5796 5787 5778 5768 5758 5748 5736 5725 5713 5700 5686 5672 5658 5643 5627 5612 5597 5583 5569 5556 5542 5528 5514 5501 5487 5472 5457 5441 5424 5407 5388 5369 5349 5331 5314 5300 5290
5846 5839 5833 5826 5817 5807 5800 5793 5783 5773 5763 5753 5742 5732 5721 5709 5696 5682 5669 5654 5640 5624 5609 5595 5581 5567 5554 5540 5527 5514 5501 5488 5473 5457 5442 5426 5409 5391 5373 5354 5337 5320 5306 5296
5844 5836 5829 5823 5813 5803 5796 5788 5779 5769 5759 5749 5739 5729 5718 5705 5692 5679 5665 5651 5636 5621 5607 5592 5579 5566 5553 5540 5527 5515 5502 5488 5473 5458 5444 5428 5412 5395 5377 5360 5343 5328 5314 5303
5841 5833 5826 5818 5809 5801 5793 5785 5774 5764 5754 5745 5735 5725 5714 5701 5688 5675 5661 5648 5634 5619 5605 5591 5577 5565 5553 5540 5528 5515 5501 5488 5475 5461 5447 5431 5415 5399 5383 5367 5351 5336 5323 5312
5836 5829 5824 5815 5807 5798 5790 5779 5769 5759 5750 5740 5730 5720 5709 5697 5684 5671 5658 5645 5631 5617 5603 5589 5576 5564 5552 5540 5528 5515 5502 5489 5477 5464 5450 5436 5421 5407 5392 5377 5362 5348 5335 5323
5835 5831 5822 5813 5804 5795 5785 5776 5766 5756 5746 5736 5726 5716 5705 5693 5681 5668 5655 5642 5629 5615 5602 5589 5576 5564 5553 5541 5529 5517 5504 5492 5480 5467 5455 5442 5429 5415 5401 5387 5373 5359 5346 5334
5832 5826 5818 5810 5801 5792 5782 5772 5762 5752 5742 5732 5723 5712 5702 5690 5678 5665 5652 5639 5626 5613 5600 5588 5575 5564 5553 5542 5530 5518 5507 5495 5483 5471 5459 5447 5435 5422 5409 5397 5383 5370 5357 5345
5828 5822 5815 5806 5797 5788 5778 5768 5758 5748 5739 5729 5719 5709 5698 5687 5675 5662 5650 5637 5624 5612 5599 5587 5575 5564 5553 5542 5532 5520 5509 5498 5487 5475 5463 5451 5440 5428 5416 5403 5390 5378 5367 5355
5823 5817 5810 5802 5794 5785 5775 5765 5754 5745 5735 5725 5715 5705 5695 5684 5672 5660 5647 5635 5623 5611 5599 5587 5575 5564 5554 5544 5533 5523 5512 5501 5491 5480 5468 5456 5444 5432 5420 5409 5397 5386 5375 5364
5818 5812 5805 5798 5789 5781 5771 5761 5751 5741 5731 5721 5712 5702 5692 5681 5669 5657 5645 5633 5621 5610 5598 5586 5575 5564 5554 5544 5534 5525 5515 5504 5494 5483 5472 5462 5450 5439 5427 5416 5405 5394 5384 5373
5812 5806 5800 5793 5785 5776 5767 5757 5747 5737 5727 5718 5708 5698 5688 5678 5666 5655 5643 5631 5620 5608 5597 5586 5575 5565 5554 5545 5535 5525 5516 5506 5496 5486 5476 5466 5455 5445 5434 5424 5413 5403 5392 5382
5806 5801 5795 5788 5780 5772 5762 5753 5743 5733 5724 5714 5705 5695 5685 5675 5664 5652 5641 5629 5618 5607 5596 5585 5575 5565 5554 5545 5536 5527 5517 5508 5499 5489 5480 5470 5460 5450 5440 5429 5419 5409 5400 5390
5800 5795 5789 5782 5775 5767 5758 5748 5739 5729 5719 5710 5701 5691 5682 5671 5661 5650 5638 5627 5616 5606 5595 5584 5574 5564 5554 5545 5536 5527 5519 5510 5501 5492 5483 5473 5464 5455 5445 5435 5425 5416 5406 5397
5793 5788 5783 5776 5769 5762 5753 5744 5734 5725 5715 5706 5697 5687 5678 5668 5658 5647 5636 5625 5614 5604 5593 5583 5573 5563 5554 5545 5536 5528 5519 5511 5502 5494 5485 5477 5468 5459 5449 5440 5430 5421 5411 5402
5786 5781 5776 5770 5763 5756 5748 5739 5729 5720 5710 5701 5692 5683 5674 5664 5655 5644 5633 5623 5612 5602 5592 5582 5572 5563 5554 5545 5536 5528 5520 5512 5504 5496 5487 5479 5470 5462 5452 5443 5434 5425 5416 5407
5777 5774 5769 5763 5756 5749 5741 5733 5724 5714 5705 5696 5688 5679 5670 5661 5651 5641 5631 5620 5610 5600 5590 5581 5571 5562 5553 5544 5536 5528 5519 5511 5504 5496 5488 5480 5472 5464 5455 5447 5438 5429 5420 5412
5769 5765 5760 5755 5749 5742 5735 5726 5718 5709 5700 5691 5683 5674 5666 5657 5647 5638 5628 5618 5608 5598 5589 5579 5570 5561 5552 5544 5535 5527 5519 5511 5503 5496 5488 5481 5473 5466 5457 5449 5440 5432 5423 5415
5759 5756 5751 5746 5741 5734 5727 5719 5711 5703 5694 5686 5678 5670 5661 5652 5643 5634 5625 5615 5605 5596 5586 5577 5568 5560 5551 5543 5535 5527 5519 5511 5503 5496 5488 5481 5473 5466 5458 5450 5442 5434 5426 5417
5748 5745 5742 5737 5732 5726 5719 5712 5704 5696 5688 5680 5672 5664 5656 5648 5639 5630 5621 5612 5602 5593 5584 5575 5566 5558 5549 5541 5533 5526 5518 5510 5503 5495 5487 5480 5473 5465 5458 5450 5442 5435 5427 5419
5737 5735 5732 5728 5723 5717 5711 5704 5697 5690 5682 5674 5666 5659 5651 5643 5635 5626 5617 5608 5599 5590 5581 5572 5564 5555 5547 5539 5531 5524 5517 5509 5502 5494 5486 5479 5471 5464 5457 5449 5442 5435 5427 5420
5726 5724 5721 5717 5713 5708 5702 5696 5689 5682 5675 5667 5660 5653 5645 5638 5630 5621 5613 5604 5595 5586 5578 5569 5561 5553 5545 5537 5529 5522 5515 5508 5500 5493 5485 5478 5470 5463 5455 5448 5441 5434 5427 5421
5714 5712 5710 5707 5703 5698 5693 5687 5681 5674 5667 5660 5653 5646 5639 5632 5625 5616 5608 5600 5591 5583 5574 5566 5558 5550 5542 5534 5527 5520 5513 5506 5499 5491 5484 5476 5469 5461 5454 5447 5441 5434 5427 5421
5701 5700 5698 5696 5692 5688 5683 5678 5672 5666 5660 5653 5646 5639 5633 5626 5619 5611 5603 5595 5587 5579 5571 5562 5555 5547 5539 5532 5525 5517 5511 5504 5497 5490 5483 5475 5468 5460 5453 5446 5440 5433 5427 5421
5687 5687 5685 5684 5681 5677 5673 5668 5663 5657 5651 5645 5639 5632 5626 5619 5612 5605 5598 5590 5582 5574 5566 5559 5551 5544 5536 5529 5522 5515 5508 5501 5495 5488 5481 5474 5467 5459 5452 5445 5439 5433 5427 5421